Stations météo

Publicité
Larnaca Airport, Chypre (17609): Température de l'air & dewpoint: 12.01.2018 15:00:00 - 18.01.2018 15:00:00 (EET)Larnaca Airport, Chypre (17609): Vitesse du vent: 12.01.2018 15:00:00 - 18.01.2018 15:00:00 (EET)Larnaca Airport, Chypre (17609): Direction du vent: 12.01.2018 15:00:00 - 18.01.2018 15:00:00 (EET)Larnaca Airport, Chypre (17609): reduced air pressure: 12.01.2018 15:00:00 - 18.01.2018 15:00:00 (EET)Larnaca Airport, Chypre (17609): visibility: 12.01.2018 15:00:00 - 18.01.2018 15:00:00 (EET)
Date & Time tt [°C] td [°C] ff [km/h] ff [knt] dd ppp [hPa] vv [km]
18.01.2018 15:00:00 17,0 16,0 48 26 SSW - 10
18.01.2018 14:00:00 14,8 13,5 54 29 SW 999,2 1,5
18.01.2018 13:00:00 - - - - - - -
18.01.2018 12:00:00 18,0 13,0 48 26 SW - 10
18.01.2018 11:00:00 18,3 14,2 50 27 SW 1003,4 10
18.01.2018 10:00:00 16,0 15,0 28 15 SW - 10
18.01.2018 09:00:00 16,0 14,0 37 20 WSW - 8
18.01.2018 08:00:00 15,3 13,8 22 12 SW 1006,5 20
18.01.2018 07:00:00 16,0 14,0 34 18 SW - 7
18.01.2018 06:00:00 16,0 14,0 26 14 WSW - 10
18.01.2018 05:00:00 15,4 14,1 28 15 SW 1008,0 10
18.01.2018 04:00:00 14,0 14,0 15 8 WSW - 7
18.01.2018 03:00:00 14,0 14,0 22 12 SSW - 10
18.01.2018 02:00:00 13,7 13,7 21 11 SW 1010,5 10
18.01.2018 01:00:00 13,0 13,0 21 11 SW - 10
18.01.2018 00:00:00 13,0 11,0 11 6 WSW - 10
17.01.2018 23:00:00 14,4 9,6 22 12 SW 1011,7 10
17.01.2018 22:00:00 11,0 10,0 5 3 NW - 10
17.01.2018 21:00:00 11,0 9,0 5 3 WSW - 10
17.01.2018 20:00:00 13,1 9,7 5 3 W 1012,9 10
17.01.2018 19:00:00 12,0 8,0 5 3 SW - 10
17.01.2018 18:00:00 14,0 9,0 11 6 WNW - 10
17.01.2018 17:00:00 14,6 10,0 13 7 SW 1012,4 10
17.01.2018 16:00:00 16,0 10,0 15 8 SW - 10
17.01.2018 15:00:00 18,0 9,0 15 8 WSW - 10
17.01.2018 14:00:00 15,9 10,0 16 9 SW 1012,8 10
17.01.2018 13:00:00 17,0 8,0 16 9 SW - 10
17.01.2018 12:00:00 18,0 9,0 13 7 SW - 10
17.01.2018 11:00:00 17,3 8,7 15 8 SSW 1014,4 10
17.01.2018 10:00:00 16,0 9,0 15 8 WSW - 10
17.01.2018 09:00:00 15,0 9,0 11 6 W - 10
17.01.2018 08:00:00 11,8 8,5 4 2 - 1014,8 10
17.01.2018 07:00:00 9,0 9,0 4 2 W - 10
17.01.2018 06:00:00 9,0 8,0 5 3 W - 10
17.01.2018 05:00:00 8,1 8,0 5 3 N 1015,3 10
17.01.2018 04:00:00 7,0 7,0 5 3 WNW - 10
17.01.2018 03:00:00 8,0 8,0 5 3 NW - 10
17.01.2018 02:00:00 8,3 7,5 5 3 W 1016,6 10
17.01.2018 01:00:00 9,0 9,0 11 6 NW - 10
17.01.2018 00:00:00 8,0 8,0 5 3 W - 10
16.01.2018 23:00:00 9,6 9,6 2 1 WNW 1018,6 10
16.01.2018 22:00:00 10,0 9,0 5 3 NW - 10
16.01.2018 21:00:00 12,0 9,0 5 3 NW - 10
16.01.2018 20:00:00 11,9 8,7 9 5 WSW 1019,7 10
16.01.2018 19:00:00 13,0 9,0 11 6 WSW - 10
16.01.2018 18:00:00 14,0 8,0 5 3 W - 10
16.01.2018 17:00:00 15,3 7,8 16 9 SW 1019,8 10
16.01.2018 16:00:00 17,0 7,0 21 11 SW - 10
16.01.2018 15:00:00 17,0 7,0 22 12 SW - 10
16.01.2018 14:00:00 17,7 8,3 22 12 SW 1021,2 10
16.01.2018 13:00:00 17,0 8,0 13 7 W - 10
16.01.2018 12:00:00 17,0 8,0 11 6 SW - 10
16.01.2018 11:00:00 16,4 8,6 9 5 SW 1024,3 10
16.01.2018 10:00:00 17,0 7,0 4 2 - - 10
16.01.2018 09:00:00 15,0 10,0 8 4 WNW - 10
16.01.2018 08:00:00 9,9 7,8 5 3 NW 1024,3 10
16.01.2018 07:00:00 8,0 6,0 8 4 WNW - 10
16.01.2018 06:00:00 8,0 6,0 8 4 WNW - 10
16.01.2018 05:00:00 8,3 6,6 9 5 NW 1023,8 10
16.01.2018 04:00:00 9,0 7,0 11 6 NW - 10
16.01.2018 03:00:00 11,0 7,0 8 4 NW - 10
16.01.2018 02:00:00 11,3 6,4 11 6 WNW 1024,6 10
16.01.2018 01:00:00 11,0 6,0 11 6 WNW - 10
16.01.2018 00:00:00 11,0 6,0 13 7 NW - 10
15.01.2018 23:00:00 11,2 6,1 13 7 WNW 1024,9 10
15.01.2018 22:00:00 11,0 7,0 11 6 WNW - 10
15.01.2018 21:00:00 11,0 8,0 2 1 - - 10
15.01.2018 20:00:00 10,6 8,4 5 3 NNW 1023,8 10
15.01.2018 19:00:00 13,0 7,0 9 5 N - 10
15.01.2018 18:00:00 14,0 7,0 9 5 N - 10
15.01.2018 17:00:00 14,9 7,5 5 3 NW 1022,9 10
15.01.2018 16:00:00 17,0 8,0 9 5 NW - 10
15.01.2018 15:00:00 18,0 8,0 8 4 SSE - 10
15.01.2018 14:00:00 18,2 8,5 9 5 SE 1021,7 10
15.01.2018 13:00:00 18,0 8,0 5 3 E - 10
15.01.2018 12:00:00 18,0 7,0 9 5 ENE - 10
15.01.2018 11:00:00 17,4 7,7 9 5 N 1022,8 10
15.01.2018 10:00:00 16,0 10,0 9 5 NNW - 10
15.01.2018 09:00:00 14,0 10,0 5 3 NNW - 10
15.01.2018 08:00:00 10,5 8,9 5 3 WNW 1021,6 10
15.01.2018 07:00:00 9,0 8,0 4 2 WNW - 10
15.01.2018 06:00:00 10,0 9,0 8 4 S - 10
15.01.2018 05:00:00 9,4 8,6 8 4 W 1019,8 10
15.01.2018 04:00:00 11,0 8,0 8 4 WNW - 10
15.01.2018 03:00:00 12,0 7,0 11 6 WNW - 10
15.01.2018 02:00:00 12,0 6,3 11 6 WSW 1019,0 10
15.01.2018 01:00:00 13,0 7,0 9 5 W - 10
15.01.2018 00:00:00 11,0 7,0 8 4 WNW - 10
14.01.2018 23:00:00 12,1 6,8 11 6 W 1017,9 10
14.01.2018 22:00:00 11,0 8,0 15 8 WNW - 10
14.01.2018 21:00:00 11,0 9,0 9 5 W - 10
14.01.2018 20:00:00 10,4 9,6 8 4 WNW 1016,3 10
14.01.2018 19:00:00 12,0 12,0 5 3 W - 10
14.01.2018 18:00:00 13,0 12,0 4 2 - - 10
14.01.2018 17:00:00 13,1 11,8 11 6 NNW 1014,3 10
14.01.2018 16:00:00 16,0 9,0 16 9 WSW - 10
14.01.2018 15:00:00 16,0 9,0 16 9 SW - 10
14.01.2018 14:00:00 17,1 7,5 22 12 SSW 1012,5 10
14.01.2018 13:00:00 17,0 8,0 21 11 SW - 10
14.01.2018 12:00:00 17,0 10,0 24 13 SW - 10
14.01.2018 11:00:00 16,3 8,8 26 14 SW 1013,5 10
14.01.2018 10:00:00 15,0 9,0 4 2 SW - 10
14.01.2018 09:00:00 13,0 9,0 9 5 NNW - 10
14.01.2018 08:00:00 11,6 7,7 0 0 N 1013,1 10
14.01.2018 07:00:00 9,0 8,0 8 4 NW - 10
14.01.2018 06:00:00 9,0 8,0 5 3 N - 10
14.01.2018 05:00:00 10,0 7,6 4 2 - 1012,0 10
14.01.2018 04:00:00 10,0 8,0 2 1 WSW - 10
14.01.2018 03:00:00 11,0 9,0 9 5 NW - 10
14.01.2018 02:00:00 11,9 10,0 18 10 NW 1012,2 10
14.01.2018 01:00:00 11,0 11,0 9 5 NW - 10
14.01.2018 00:00:00 12,0 11,0 5 3 W - 10
13.01.2018 23:00:00 12,3 9,9 8 4 NNW 1013,3 10
13.01.2018 22:00:00 12,0 10,0 8 4 NW - 10
13.01.2018 21:00:00 12,0 11,0 5 3 W - 10
13.01.2018 20:00:00 12,9 10,1 8 4 NW 1013,7 10
13.01.2018 19:00:00 14,0 11,0 5 3 WSW - 10
13.01.2018 18:00:00 16,0 10,0 8 4 SW - 10
13.01.2018 17:00:00 16,4 11,1 5 3 SSW 1013,9 10
13.01.2018 16:00:00 18,0 11,0 4 2 - - 10
13.01.2018 15:00:00 - - - - - - -
13.01.2018 14:00:00 18,3 10,4 9 5 SE 1015,3 10
13.01.2018 13:00:00 19,0 9,0 5 3 ESE - 10
13.01.2018 12:00:00 19,0 11,0 5 3 E - 10
13.01.2018 11:00:00 18,3 12,7 8 4 E 1018,3 10
13.01.2018 10:00:00 18,0 12,0 4 2 - - 10
13.01.2018 09:00:00 15,0 12,0 9 5 NW - 10
13.01.2018 08:00:00 11,9 11,0 9 5 NW 1019,3 10
13.01.2018 07:00:00 10,0 10,0 4 2 NW - 10
13.01.2018 06:00:00 11,0 10,0 13 7 NW - 10
13.01.2018 05:00:00 10,2 10,2 13 7 WNW 1019,3 10
13.01.2018 04:00:00 11,0 10,0 9 5 WNW - 10
13.01.2018 03:00:00 11,0 11,0 11 6 WNW - 10
13.01.2018 02:00:00 11,6 11,0 11 6 WNW 1020,2 20
13.01.2018 01:00:00 12,0 11,0 9 5 NW - 10
13.01.2018 00:00:00 12,0 12,0 8 4 WNW - 10
12.01.2018 23:00:00 12,2 12,0 0 0 N 1020,6 10
12.01.2018 22:00:00 13,0 13,0 5 3 W - 10
12.01.2018 21:00:00 13,0 13,0 0 0 N - 10
12.01.2018 20:00:00 14,3 12,3 5 3 WNW 1020,4 10
12.01.2018 19:00:00 16,0 11,0 11 6 NNW - 10
12.01.2018 18:00:00 16,0 11,0 11 6 NNW - 10
12.01.2018 17:00:00 17,7 11,3 15 8 NNW 1018,9 10
12.01.2018 16:00:00 19,0 13,0 9 5 WSW - 10
12.01.2018 15:00:00 20,0 13,0 22 12 SSW - 10

tt = Température de l'air
td = dewpoint
ff = Vitesse du vent
dd = Direction du vent
ppp = reduced air pressure
vv = visibility

stations d'obs. à proximité